sat.trackr.live / text

‹ back to catalog

ARKTIKA-M 1

NORAD 47719 · 2021-016A

PAYLOAD ACTIVE UNKNOWN

§ Identity

Operator
Country
CIS
Launch date
2021-02-28
Launch site
TYMSC
Launch vehicle
Mass (kg)
RCS (m²)

Purposes: earth_obs

External: N2YO · Heavens-Above · Gunter

§ Orbital elements

Epoch: 2026-05-24T01:37:17.869152Z

Period
717.74 min
Inclination
63.2351°
Eccentricity
0.7279642
Mean motion
2.00630669 rev/d
Perigee alt
845.6 km
Apogee alt
39,507.0 km
Semi-major
26,554.4 km
B*
0.0000e+0
RAAN
61.1234°
Arg perigee
269.8294°
Mean anomaly
14.7586°
Rev number
3,830

§ Raw data

ARKTIKA-M 11 47719U 21016A   26144.06756793 -.00000118  00000+0  00000+0 0  99972 47719  63.2351  61.1234 7279642 269.8294  14.7586  2.00630669 38301

JSON: /api/v1/satellites/47719 · /tle

For live sub-satellite position, see the globe view (requires WebGL).

§ Visibility from observer

Set your observer location to see the next 7 days of passes ≥ 10°. The values pass through the URL so the page stays shareable.

No JS? Fill the form by hand. The geolocation button needs JavaScript.

§ Radio — SatNOGS DB

ModeDescriptionDownlinkUplink
FM Mode L - DCP 1.703 GHz
FM Mode X - RDAS 7.865 GHz
FM SARSAT L-Band 1.545 GHz
FM Mode L - GGAK-VE (inactive) 1.703 GHz

4 transmitters · refreshed weekly from db.satnogs.org